AUA101 LOWW-LOWI

Flight info

Callsign AUA101
Flight time 0h 53m
Altitude 28000
Route SOVIL2B/16 SOVIL DCT SITNI DCT BAGSI DCT NANIT NANIT2A
Aircraft A320/M-SDE3FGHIRWY/LB1

Departure

Time 2026-05-06 19:06
Airport Vienna International Airport (LOWW)

Arrival

Time 2026-05-06 19:59
Airport Innsbruck Airport (LOWI)
Time Latitude Longitude Altitude Speed Heading
2026-05-06 18:04 48.11882 16.56827 600 ft 0 kts 201°
2026-05-06 18:44 48.11887 16.56830 600 ft 3 kts 201°
2026-05-06 18:44 48.11903 16.56839 599 ft 3 kts 201°
2026-05-06 18:45 48.11919 16.56848 599 ft 3 kts 201°
2026-05-06 18:45 48.11935 16.56858 599 ft 3 kts 201°
2026-05-06 18:45 48.11952 16.56868 598 ft 3 kts 185°
2026-05-06 18:45 48.11970 16.56867 598 ft 3 kts 161°
2026-05-06 18:46 48.11986 16.56856 597 ft 3 kts 152°
2026-05-06 18:46 48.12002 16.56842 597 ft 3 kts 133°
2026-05-06 18:46 48.12005 16.56838 597 ft 0 kts 129°
2026-05-06 18:49 48.11998 16.56852 597 ft 1 kts 125°
2026-05-06 18:49 48.11998 16.56853 597 ft 0 kts 124°
2026-05-06 18:50 48.11995 16.56861 597 ft 3 kts 122°
2026-05-06 18:50 48.11986 16.56904 598 ft 6 kts 101°
2026-05-06 18:50 48.11960 16.56971 599 ft 7 kts 122°
2026-05-06 18:50 48.11941 16.57021 600 ft 4 kts 116°
2026-05-06 18:51 48.11933 16.57046 601 ft 2 kts 116°
2026-05-06 18:51 48.11929 16.57060 601 ft 3 kts 116°
2026-05-06 18:51 48.11915 16.57100 601 ft 6 kts 117°
2026-05-06 18:51 48.11890 16.57168 603 ft 9 kts 125°
2026-05-06 18:52 48.11848 16.57241 607 ft 10 kts 116°
2026-05-06 18:52 48.11873 16.57312 611 ft 10 kts
2026-05-06 18:52 48.11953 16.57294 604 ft 14 kts
2026-05-06 18:52 48.12002 16.57384 605 ft 6 kts 72°
2026-05-06 18:53 48.12011 16.57443 612 ft 0 kts 80°
2026-05-06 18:53 48.12013 16.57458 608 ft 0 kts 84°
2026-05-06 18:54 48.12013 16.57467 606 ft 1 kts 89°
2026-05-06 18:54 48.12013 16.57470 606 ft 0 kts 89°
2026-05-06 18:54 48.12013 16.57471 606 ft 0 kts 89°
2026-05-06 18:54 48.12013 16.57474 606 ft 0 kts 91°
2026-05-06 18:55 48.12012 16.57475 606 ft 1 kts 91°
2026-05-06 18:55 48.12009 16.57515 605 ft 4 kts 100°
2026-05-06 18:56 48.12002 16.57560 611 ft 1 kts 104°
2026-05-06 18:56 48.12001 16.57569 611 ft 0 kts 104°
2026-05-06 18:56 48.12000 16.57573 610 ft 0 kts 105°
2026-05-06 18:56 48.12000 16.57574 610 ft 0 kts 105°
2026-05-06 18:57 48.11999 16.57574 609 ft 0 kts 105°
2026-05-06 19:03 48.11998 16.57584 607 ft 0 kts 105°
2026-05-06 19:04 48.11997 16.57590 604 ft 3 kts 105°
2026-05-06 19:04 48.11987 16.57638 603 ft 5 kts 107°
2026-05-06 19:04 48.11972 16.57714 603 ft 10 kts 105°
2026-05-06 19:04 48.11939 16.57813 614 ft 10 kts 131°
2026-05-06 19:05 48.11903 16.57851 613 ft 0 kts 160°
2026-05-06 19:05 48.11901 16.57852 613 ft 2 kts 160°
2026-05-06 19:05 48.11782 16.57895 615 ft 48 kts 161°
2026-05-06 19:05 48.11224 16.58140 615 ft 116 kts 164°
2026-05-06 19:06 48.10291 16.58528 629 ft 164 kts 164°
2026-05-06 19:06 48.09131 16.59088 925 ft 186 kts 161°
2026-05-06 19:06 48.07832 16.59773 1314 ft 209 kts 160°
2026-05-06 19:06 48.06440 16.60330 2110 ft 207 kts 176°
2026-05-06 19:07 48.05031 16.59752 2597 ft 222 kts 217°
2026-05-06 19:07 48.04260 16.58632 2819 ft 235 kts 231°
2026-05-06 19:07 48.02946 16.55844 3543 ft 258 kts 237°
2026-05-06 19:07 48.01969 16.53552 4413 ft 263 kts 238°
2026-05-06 19:08 48.00966 16.51243 5306 ft 267 kts 237°
2026-05-06 19:08 48.00000 16.48850 6187 ft 271 kts 248°
2026-05-06 19:08 47.99649 16.46081 7029 ft 275 kts 272°
2026-05-06 19:08 47.99775 16.43217 7905 ft 278 kts 274°
2026-05-06 19:09 47.99924 16.40322 8758 ft 281 kts 274°
2026-05-06 19:09 48.00078 16.37389 9572 ft 285 kts 274°
2026-05-06 19:09 48.00233 16.34419 10380 ft 289 kts 274°
2026-05-06 19:09 48.00389 16.31367 10737 ft 310 kts 274°
2026-05-06 19:10 48.00555 16.28049 11121 ft 327 kts 274°
2026-05-06 19:10 48.00721 16.24626 11800 ft 333 kts 274°
2026-05-06 19:10 48.00887 16.21153 12538 ft 337 kts 274°
2026-05-06 19:10 48.01057 16.17638 13239 ft 342 kts 274°
2026-05-06 19:11 48.01229 16.14070 13935 ft 346 kts 274°
2026-05-06 19:11 48.01403 16.10462 14600 ft 350 kts 274°
2026-05-06 19:11 48.01578 16.06816 15279 ft 353 kts 274°
2026-05-06 19:11 48.01752 16.03134 15934 ft 357 kts 274°
2026-05-06 19:12 48.01927 15.99415 16580 ft 360 kts 274°
2026-05-06 19:12 48.02103 15.95674 17201 ft 363 kts 274°
2026-05-06 19:12 48.02279 15.91883 17806 ft 367 kts 274°
2026-05-06 19:12 48.02454 15.88061 18394 ft 370 kts 274°
2026-05-06 19:13 48.02628 15.84208 18966 ft 374 kts 274°
2026-05-06 19:13 48.02802 15.80363 19532 ft 377 kts 274°
2026-05-06 19:13 48.02979 15.76443 20097 ft 380 kts 274°
2026-05-06 19:13 48.03092 15.72429 20649 ft 384 kts 266°
2026-05-06 19:14 48.02610 15.68502 21172 ft 387 kts 256°
2026-05-06 19:14 48.01938 15.64589 21712 ft 390 kts 255°
2026-05-06 19:14 48.01252 15.60653 22242 ft 393 kts 255°
2026-05-06 19:14 48.00568 15.56739 22765 ft 396 kts 255°
2026-05-06 19:15 47.99866 15.52747 23240 ft 399 kts 255°
2026-05-06 19:15 47.99157 15.48718 23727 ft 403 kts 255°
2026-05-06 19:15 47.98442 15.44654 24183 ft 406 kts 255°
2026-05-06 19:15 47.97724 15.40565 24632 ft 409 kts 255°
2026-05-06 19:16 47.97000 15.36442 25074 ft 411 kts 255°
2026-05-06 19:16 47.96272 15.32301 25496 ft 414 kts 255°
2026-05-06 19:16 47.95537 15.28133 25904 ft 417 kts 255°
2026-05-06 19:16 47.94797 15.23938 26296 ft 419 kts 255°
2026-05-06 19:17 47.94050 15.19726 26667 ft 422 kts 255°
2026-05-06 19:17 47.93293 15.15483 27045 ft 424 kts 255°
2026-05-06 19:17 47.92532 15.11220 27417 ft 426 kts 255°
2026-05-06 19:17 47.91771 15.06938 27787 ft 428 kts 255°
2026-05-06 19:18 47.91004 15.02635 27972 ft 431 kts 255°
2026-05-06 19:18 47.90243 14.98386 28012 ft 416 kts 255°
2026-05-06 19:18 47.89750 14.95651 28007 ft 409 kts 255°
2026-05-06 19:19 47.88028 14.86179 28008 ft 403 kts 255°
2026-05-06 19:19 47.86563 14.78136 28013 ft 402 kts 255°
2026-05-06 19:20 47.85116 14.70148 28009 ft 403 kts 255°
2026-05-06 19:20 47.83650 14.62110 28010 ft 402 kts 255°
2026-05-06 19:20 47.82913 14.58103 27998 ft 402 kts 255°
2026-05-06 19:21 47.82172 14.54087 27990 ft 403 kts 255°
2026-05-06 19:21 47.81431 14.50083 27994 ft 403 kts 255°
2026-05-06 19:21 47.80686 14.46058 27998 ft 403 kts 255°
2026-05-06 19:21 47.79941 14.42042 27995 ft 403 kts 255°
2026-05-06 19:22 47.79196 14.38031 28002 ft 403 kts 255°
2026-05-06 19:22 47.78691 14.35318 27986 ft 398 kts 255°
2026-05-06 19:22 47.77960 14.31395 27668 ft 392 kts 255°
2026-05-06 19:22 47.77233 14.27504 27244 ft 389 kts 255°
2026-05-06 19:23 47.76515 14.23661 26871 ft 384 kts 255°
2026-05-06 19:23 47.75810 14.19905 26487 ft 380 kts 254°
2026-05-06 19:23 47.75101 14.16140 26026 ft 377 kts 254°
2026-05-06 19:23 47.74396 14.12399 25591 ft 375 kts 254°
2026-05-06 19:24 47.73693 14.08676 25100 ft 373 kts 254°
2026-05-06 19:24 47.72992 14.04960 24597 ft 373 kts 254°
2026-05-06 19:24 47.72296 14.01273 24191 ft 369 kts 254°
2026-05-06 19:24 47.71603 13.97619 23734 ft 366 kts 254°
2026-05-06 19:25 47.70915 13.93998 23293 ft 364 kts 254°
2026-05-06 19:25 47.70226 13.90389 22826 ft 362 kts 254°
2026-05-06 19:25 47.69539 13.86806 22398 ft 360 kts 254°
2026-05-06 19:25 47.68856 13.83246 21993 ft 357 kts 254°
2026-05-06 19:26 47.68179 13.79714 21559 ft 355 kts 254°
2026-05-06 19:26 47.67506 13.76203 21176 ft 352 kts 254°
2026-05-06 19:26 47.66839 13.72727 20802 ft 348 kts 254°
2026-05-06 19:26 47.66175 13.69277 20384 ft 347 kts 254°
2026-05-06 19:27 47.65513 13.65852 19988 ft 344 kts 254°
2026-05-06 19:27 47.64858 13.62453 19615 ft 342 kts 254°
2026-05-06 19:27 47.64207 13.59081 19258 ft 338 kts 254°
2026-05-06 19:27 47.63560 13.55737 18841 ft 337 kts 254°
2026-05-06 19:28 47.62908 13.52408 18427 ft 336 kts 254°
2026-05-06 19:28 47.62256 13.49085 18016 ft 335 kts 254°
2026-05-06 19:28 47.61612 13.45784 17615 ft 334 kts 254°
2026-05-06 19:28 47.60969 13.42490 17262 ft 331 kts 254°
2026-05-06 19:29 47.60339 13.39260 17010 ft 329 kts 254°
2026-05-06 19:29 47.59706 13.36022 16769 ft 326 kts 254°
2026-05-06 19:29 47.59078 13.32806 16407 ft 324 kts 254°
2026-05-06 19:29 47.58673 13.29543 16069 ft 322 kts 264°
2026-05-06 19:30 47.58452 13.26249 15995 ft 321 kts 265°
2026-05-06 19:30 47.58247 13.22946 16008 ft 322 kts 265°
2026-05-06 19:30 47.58042 13.19641 16009 ft 322 kts 265°
2026-05-06 19:30 47.57838 13.16337 16009 ft 322 kts 265°
2026-05-06 19:31 47.57633 13.13030 16009 ft 322 kts 265°
2026-05-06 19:31 47.57429 13.09723 16008 ft 323 kts 265°
2026-05-06 19:31 47.57016 13.03071 16009 ft 326 kts 265°
2026-05-06 19:32 47.56809 12.99732 16009 ft 325 kts 265°
2026-05-06 19:32 47.56602 12.96411 16007 ft 324 kts 265°
2026-05-06 19:32 47.56394 12.93077 16008 ft 326 kts 265°
2026-05-06 19:32 47.56185 12.89721 16009 ft 327 kts 265°
2026-05-06 19:33 47.55981 12.86391 16086 ft 323 kts 263°
2026-05-06 19:33 47.55871 12.83109 15935 ft 315 kts 264°
2026-05-06 19:33 47.55818 12.79922 15870 ft 305 kts 264°
2026-05-06 19:33 47.55774 12.76802 15863 ft 302 kts 264°
2026-05-06 19:34 47.55730 12.73696 15861 ft 301 kts 264°
2026-05-06 19:34 47.55685 12.70591 15851 ft 302 kts 264°
2026-05-06 19:34 47.55639 12.67469 15857 ft 304 kts 264°
2026-05-06 19:34 47.55594 12.64347 15850 ft 304 kts 264°
2026-05-06 19:35 47.55547 12.61219 15848 ft 303 kts 265°
2026-05-06 19:35 47.55497 12.58109 15847 ft 302 kts 264°
2026-05-06 19:35 47.55451 12.55001 15844 ft 302 kts 264°
2026-05-06 19:35 47.55408 12.51883 15851 ft 304 kts 264°
2026-05-06 19:36 47.55365 12.48763 15845 ft 302 kts 264°
2026-05-06 19:36 47.55320 12.45651 15847 ft 302 kts 264°
2026-05-06 19:36 47.55276 12.42538 15845 ft 302 kts 264°
2026-05-06 19:36 47.55233 12.39416 15847 ft 304 kts 265°
2026-05-06 19:37 47.55187 12.36325 15849 ft 305 kts 264°
2026-05-06 19:37 47.55138 12.33192 15848 ft 304 kts 264°
2026-05-06 19:37 47.55090 12.30070 15846 ft 303 kts 264°
2026-05-06 19:37 47.55042 12.26950 15849 ft 304 kts 264°
2026-05-06 19:38 47.54993 12.23827 15844 ft 303 kts 264°
2026-05-06 19:38 47.54942 12.20703 15845 ft 303 kts 264°
2026-05-06 19:38 47.54891 12.17584 15841 ft 303 kts 264°
2026-05-06 19:38 47.54842 12.14461 15843 ft 303 kts 264°
2026-05-06 19:39 47.54794 12.11334 15840 ft 303 kts 264°
2026-05-06 19:39 47.54746 12.08214 15848 ft 304 kts 264°
2026-05-06 19:39 47.54695 12.05092 15841 ft 304 kts 264°
2026-05-06 19:39 47.54641 12.01968 15838 ft 303 kts 264°
2026-05-06 19:40 47.54584 11.98844 15842 ft 303 kts 264°
2026-05-06 19:40 47.54529 11.95719 15846 ft 304 kts 264°
2026-05-06 19:40 47.54473 11.92591 15844 ft 304 kts 264°
2026-05-06 19:40 47.54416 11.89472 15837 ft 303 kts 265°
2026-05-06 19:41 47.54348 11.86349 15844 ft 303 kts 264°
2026-05-06 19:41 47.54283 11.83226 15844 ft 304 kts 265°
2026-05-06 19:41 47.54206 11.80095 15844 ft 305 kts 264°
2026-05-06 19:41 47.54139 11.76957 15843 ft 305 kts 264°
2026-05-06 19:42 47.54076 11.73814 15843 ft 306 kts 264°
2026-05-06 19:42 47.54006 11.70671 15842 ft 306 kts 264°
2026-05-06 19:42 47.53940 11.67537 15737 ft 303 kts 264°
2026-05-06 19:42 47.53876 11.64423 15381 ft 302 kts 264°
2026-05-06 19:43 47.53810 11.61325 15057 ft 300 kts 264°
2026-05-06 19:43 47.53742 11.58240 14750 ft 298 kts 264°
2026-05-06 19:43 47.53671 11.55219 14450 ft 297 kts 264°
2026-05-06 19:43 47.53592 11.52179 14102 ft 294 kts 264°
2026-05-06 19:44 47.53505 11.49157 13731 ft 293 kts 264°
2026-05-06 19:44 47.53331 11.46136 13357 ft 290 kts 260°
2026-05-06 19:44 47.53078 11.43227 13029 ft 288 kts 259°
2026-05-06 19:44 47.52803 11.40250 12834 ft 288 kts 259°
2026-05-06 19:45 47.52532 11.37311 12841 ft 289 kts 259°
2026-05-06 19:45 47.52266 11.34394 12841 ft 289 kts 259°
2026-05-06 19:45 47.51995 11.31446 12839 ft 289 kts 259°
2026-05-06 19:45 47.51724 11.28492 12842 ft 290 kts 259°
2026-05-06 19:46 47.51453 11.25537 12848 ft 290 kts 259°
2026-05-06 19:46 47.51181 11.22586 12851 ft 290 kts 259°
2026-05-06 19:46 47.50906 11.19631 12849 ft 290 kts 259°
2026-05-06 19:46 47.50631 11.16678 12848 ft 289 kts 259°
2026-05-06 19:47 47.50539 11.15703 12608 ft 291 kts 259°
2026-05-06 19:47 47.50257 11.12742 12272 ft 289 kts 259°
2026-05-06 19:47 47.49979 11.09808 11946 ft 287 kts 259°
2026-05-06 19:47 47.49703 11.06888 11587 ft 286 kts 259°
2026-05-06 19:48 47.49425 11.03972 11523 ft 287 kts 259°
2026-05-06 19:48 47.49141 11.01037 11531 ft 288 kts 258°
2026-05-06 19:48 47.48655 10.98178 11537 ft 287 kts 250°
2026-05-06 19:48 47.48025 10.95337 11542 ft 287 kts 249°
2026-05-06 19:49 47.47402 10.92576 11543 ft 287 kts 249°
2026-05-06 19:49 47.46772 10.89782 11542 ft 287 kts 249°
2026-05-06 19:49 47.46141 10.86987 11410 ft 285 kts 249°
2026-05-06 19:49 47.45510 10.84219 11027 ft 284 kts 249°
2026-05-06 19:50 47.44878 10.81454 10698 ft 281 kts 248°
2026-05-06 19:50 47.43957 10.79033 10649 ft 261 kts 227°
2026-05-06 19:50 47.42609 10.77378 10652 ft 246 kts 207°
2026-05-06 19:50 47.41053 10.76575 10651 ft 233 kts 189°
2026-05-06 19:51 47.39439 10.76589 10643 ft 233 kts 171°
2026-05-06 19:51 47.37885 10.77095 10643 ft 221 kts 169°
2026-05-06 19:51 47.36411 10.77579 10645 ft 215 kts 169°
2026-05-06 19:51 47.34957 10.78052 10640 ft 213 kts 169°
2026-05-06 19:52 47.33514 10.78545 10645 ft 214 kts 164°
2026-05-06 19:52 47.32193 10.79454 10653 ft 205 kts 148°
2026-05-06 19:52 47.31128 10.80870 10639 ft 208 kts 133°
2026-05-06 19:52 47.30332 10.82677 10431 ft 216 kts 119°
2026-05-06 19:53 47.29871 10.84829 9940 ft 224 kts 102°
2026-05-06 19:53 47.29762 10.87112 9590 ft 220 kts 90°
2026-05-06 19:53 47.29860 10.89309 9512 ft 213 kts 89°
2026-05-06 19:53 47.29948 10.91488 9459 ft 213 kts 90°
2026-05-06 19:54 47.30029 10.93664 9409 ft 212 kts 90°
2026-05-06 19:54 47.30108 10.95836 9358 ft 212 kts 90°
2026-05-06 19:54 47.30188 10.98033 8926 ft 219 kts 90°
2026-05-06 19:54 47.30270 11.00307 8319 ft 225 kts 89°
2026-05-06 19:55 47.30354 11.02635 7743 ft 228 kts 89°
2026-05-06 19:55 47.30440 11.04972 7238 ft 223 kts 88°
2026-05-06 19:55 47.30449 11.07209 6701 ft 214 kts 97°
2026-05-06 19:55 47.30170 11.09319 6135 ft 207 kts 107°
2026-05-06 19:56 47.29690 11.11287 5554 ft 201 kts 112°
2026-05-06 19:56 47.29146 11.13130 5183 ft 191 kts 113°
2026-05-06 19:56 47.28602 11.14911 5060 ft 190 kts 112°
2026-05-06 19:56 47.28163 11.16687 4657 ft 184 kts 108°
2026-05-06 19:57 47.27774 11.18527 4038 ft 190 kts 107°
2026-05-06 19:57 47.27347 11.20350 3625 ft 182 kts 109°
2026-05-06 19:57 47.26965 11.22011 3424 ft 163 kts 109°
2026-05-06 19:57 47.26609 11.23529 3190 ft 152 kts 109°
2026-05-06 19:58 47.26281 11.24975 2929 ft 147 kts 106°
2026-05-06 19:58 47.26046 11.26423 2698 ft 143 kts 101°
2026-05-06 19:58 47.25865 11.27846 2553 ft 142 kts 105°
2026-05-06 19:58 47.25663 11.29244 2415 ft 138 kts 105°
2026-05-06 19:59 47.25601 11.30663 2301 ft 140 kts 88°
2026-05-06 19:59 47.25703 11.31609 2241 ft 142 kts 82°
2026-05-06 19:59 47.25924 11.33493 1900 ft 133 kts 82°
2026-05-06 19:59 47.26001 11.34266 1901 ft 48 kts 79°
2026-05-06 20:00 47.26043 11.34642 1906 ft 33 kts 78°
2026-05-06 20:00 47.26070 11.34849 1900 ft 28 kts 80°
2026-05-06 20:00 47.26101 11.35186 1905 ft 16 kts 85°
2026-05-06 20:00 47.26035 11.35267 1904 ft 13 kts 174°
2026-05-06 20:01 47.25973 11.35280 1904 ft 4 kts 170°
2026-05-06 20:01 47.25970 11.35281 1904 ft 0 kts 170°
2026-05-06 20:01 47.25966 11.35282 1893 ft 2 kts 171°
2026-05-06 20:01 47.25925 11.35286 1901 ft 8 kts 188°
2026-05-06 20:02 47.25892 11.35233 1899 ft 7 kts 251°
2026-05-06 20:02 47.25886 11.35175 1898 ft 5 kts 263°
2026-05-06 20:02 47.25882 11.35128 1896 ft 4 kts 263°
2026-05-06 20:02 47.25871 11.35107 1890 ft 2 kts 211°
2026-05-06 20:03 47.25864 11.35101 1896 ft 1 kts 210°
2026-05-06 20:03 47.25863 11.35101 1896 ft 1 kts 204°
2026-05-06 20:03 47.25846 11.35098 1897 ft 5 kts 185°
2026-05-06 20:03 47.25834 11.35098 1901 ft 0 kts 177°